CAPE
0 0 0 0 0 0 0 0 0 0 0 0 0 0 0 0 0 0 0 0 0 0 0 0 0 0 0 0 0 0 0 0 0 0 0 0 0 0 0 0 0 0 0 0
0 0 0 0 0 0 0 0 0 0 0 0 0 0 0 0 0 0 0 0 0 0 0 0 0 0 0 0 0 0 0 0 0 0 0 0 0 0 0 0 0 0 0 0
0 0 0 0 0 0 0 0 0 0 0 0 0 0 0 0 0 0 0 0 0 0 0 0 0 0 0 0 0 0 0 0 0 0 0 0 0 0 0 0 0 0 0 0
0 0 0 0 0 0 0 0 0 0 0 0 0 0 0 0 0 0 0 0 0 0 0 0 0 0 0 0 0 0 0 0 0 0 0 0 0 0 0 0 0 0 0 0
0 0 0 0 0 0 0 0 0 0 0 0 0 0 0 0 0 0 0 0 0 0 0 0 0 0 0 0 0 0 0 0 0 0 0 0 0 0 0 0 0 0 0 1
0 0 0 0 0 0 0 0 0 0 0 0 0 0 0 0 0 0 0 0 0 0 0 0 0 0 0 0 0 0 0 0 0 0 0 0 0 0 0 0 0 0 1 0
0 0 0 0 0 0 0 0 0 0 0 0 0 0 0 0 0 0 0 0 0 0 0 0 0 0 0 0 0 0 0 0 0 0 0 0 0 0 0 0 0 0 0 0
0 0 0 0 0 0 0 0 0 0 0 0 0 0 0 0 0 0 0 0 0 0 0 0 0 0 0 0 0 0 0 0 0 0 0 0 0 0 0 0 0 0 1 1
0 0 0 0 0 0 0 0 0 0 0 0 0 0 0 0 0 0 0 0 0 0 0 0 0 0 0 0 0 0 0 0 0 0 0 0 0 0 0 0 0 0 0 2
0 0 0 0 0 0 0 0 0 0 0 0 0 0 0 0 0 0 0 0 0 0 0 0 0 0 0 0 0 0 0 0 0 0 0 0 0 0 0 0 0 0 0 1
0 0 0 0 0 0 0 0 0 0 0 0 0 0 0 0 0 0 0 0 0 0 0 0 0 0 0 0 0 0 0 0 0 0 0 0 0 0 0 0 0 1 0 0
0 0 0 0 0 0 0 0 0 0 0 0 0 0 0 0 0 0 0 0 0 0 0 0 0 0 0 0 0 0 0 0 0 0 0 0 0 0 0 1 0 0 1 1
0 0 0 0 0 0 0 0 0 0 0 0 0 0 0 0 0 0 0 0 0 0 0 0 0 0 0 0 0 0 0 0 0 0 0 0 0 0 1 2 0 0 0 0
0 0 0 0 0 0 0 0 0 0 0 0 0 0 0 0 0 0 0 0 0 0 0 0 0 0 0 0 0 0 0 0 0 0 0 0 0 0 0 1 1 0 0 1
0 0 0 0 0 0 0 0 0 0 0 0 0 0 0 0 0 0 0 0 0 0 0 0 0 0 0 0 0 0 0 0 0 0 0 0 0 0 0 1 1 0 0 1
0 0 0 0 0 0 0 0 0 0 0 0 0 0 0 0 0 0 0 0 0 0 0 0 0 0 0 0 0 0 0 0 0 0 0 0 0 0 0 0 1 0 0 0
1 1 0 0 0 0 0 0 0 0 0 0 0 0 0 0 0 0 0 0 0 0 0 0 0 0 0 0 0 0 0 0 0 0 0 0 0 0 0 0 2 1 0 0
0 1 0 0 0 0 0 0 0 0 0 0 0 0 0 0 0 0 0 0 0 0 0 0 0 0 0 0 0 0 0 0 0 0 0 0 0 0 0 0 2 2 1 1
1 0 0 0 0 0 0 0 0 0 0 0 0 0 0 0 0 0 0 0 0 0 0 0 0 0 0 0 0 0 0 0 0 0 0 0 0 0 0 0 0 2 3 2
0 0 0 0 0 0 0 0 0 0 0 0 0 0 0 0 0 0 0 0 0 0 0 0 0 0 0 0 0 0 0 0 0 0 0 0 0 0 0 0 0 0 2 1
0 0 0 0 0 0 0 0 0 0 0 0 0 0 0 0 0 0 0 0 0 0 0 0 0 0 0 0 0 0 0 0 0 0 0 0 0 0 0 0 0 0 0 0
0 0 0 0 0 0 0 0 0 0 0 0 0 0 0 0 0 0 0 0 0 0 0 0 0 0 0 0 0 0 0 0 0 0 0 0 0 0 0 0 0 0 0 0
0 0 0 0 0 0 0 0 0 0 0 0 0 0 0 0 0 0 0 0 0 0 0 0 0 0 0 0 0 0 0 0 0 0 0 0 0 0 0 0 0 0 0 0
0 0 0 0 0 0 0 0 0 0 0 0 0 0 0 0 0 0 0 0 0 0 0 0 0 0 0 0 0 0 0 0 0 0 0 0 0 0 0 0 0 0 0 0
0 0 0 0 0 0 0 0 0 0 0 0 0 0 0 0 0 0 0 0 0 0 0 0 0 0 0 0 0 0 0 0 0 0 0 0 0 0 0 0 0 0 0 0
0 0 0 0 0 0 0 0 0 0 0 0 0 0 0 0 0 0 0 0 0 0 0 0 0 0 0 0 0 0 0 0 0 0 0 0 0 0 0 0 0 0 0 0
CIN
-0 -0 -0 -0 -0 -0 -0 -0 -0 -0 -0 -0 -0 -0 -0 -0 -0 -0 -0 -0 -0 -0 -0 -0 -0 -0 -0 -0 -0 -0 -0 -0 -0 -0 -0 -0 -0 -0 -0 -0 -0 -0 -0 -0
-0 -0 -0 -0 -0 -0 -0 -0 -0 -0 -0 -0 -0 -0 -0 -0 -0 -0 -0 -0 -0 -0 -0 -0 -0 -0 -0 -0 -0 -0 -0 -0 -0 -0 -0 -0 -0 -0 -0 -0 -0 -0 -0 -0
-0 -0 -0 -0 -0 -0 -0 -0 -0 -0 -0 -0 -0 -0 -0 -0 -0 -0 -0 -0 -0 -0 -0 -0 -0 -0 -0 -0 -0 -0 -0 -0 -0 -0 -0 -0 -0 -0 -0 -0 -0 -0 -0 -0
-0 -0 -0 -0 -0 -0 -0 -0 -0 -0 -0 -0 -0 -0 -0 -0 -0 -0 -0 -0 -0 -0 -0 -0 -0 -0 -0 -0 -0 -0 -0 -0 -0 -0 -0 -0 -0 -0 -0 -0 -0 -0 -0 -0
-0 -0 -0 -0 -0 -0 -0 -0 -0 -0 -0 -0 -0 -0 -0 -0 -0 -0 -0 -0 -0 -0 -0 -0 -0 -0 -0 -0 -0 -0 -0 -0 -0 -0 -0 -0 -0 -0 -0 -0 -0 -0 -0 -0
-0 -0 -0 -0 -0 -0 -0 -0 -0 -0 -0 -0 -0 -0 -0 -0 -0 -0 -0 -0 -0 -0 -0 -0 -0 -0 -0 -0 -0 -0 -0 -0 -0 -0 -0 -0 -0 -0 -0 -0 -0 -0 -0 -0
-0 -0 -0 -0 -0 -0 -0 -0 -0 -0 -0 -0 -0 -0 -0 -0 -0 -0 -0 -0 -0 -0 -0 -0 -0 -0 -0 -0 -0 -0 -0 -0 -0 -0 -0 -0 -0 -0 -0 -0 -0 -0 -0 -0
-0 -0 -0 -0 -0 -0 -0 -0 -0 -0 -0 -0 -0 -0 -0 -0 -0 -0 -0 -0 -0 -0 -0 -0 -0 -0 -0 -0 -0 -0 -0 -0 -0 -0 -0 -0 -0 -0 -0 -1 -0 -0 -0 -0
-0 -0 -0 -0 -0 -0 -0 -0 -0 -0 -0 -0 -0 -0 -0 -0 -0 -0 -0 -0 -0 -0 -0 -0 -0 -0 -0 -0 -0 -0 -0 -0 -0 -0 -0 -0 -0 -0 -0 -0 -0 -0 -0 -0
-0 -0 -0 -0 -0 -0 -0 -0 -0 -0 -0 -0 -0 -0 -0 -0 -0 -0 -0 -0 -0 -0 -0 -0 -0 -0 -0 -0 -0 -0 -0 -0 -0 -0 -0 -0 -0 -1 -1 -0 -0 -0 -0 -0
-0 -0 -0 -0 -0 -0 -0 -0 -0 -0 -0 -0 -0 -0 -0 -0 -0 -0 -0 -0 -0 -0 -0 -0 -0 -0 -0 -0 -0 -0 -0 -0 -0 -0 -0 -0 -0 -0 -0 -0 -0 -0 -0 -0
-0 -0 -0 -0 -0 -0 -0 -0 -0 -0 -0 -0 -0 -0 -0 -0 -0 -0 -0 -0 -0 -0 -0 -0 -0 -0 -0 -0 -0 -0 -0 -0 -0 -0 -0 -0 -0 -0 -0 -0 -0 -0 -0 -0
-0 -0 -0 -0 -0 -0 -0 -0 -0 -0 -0 -0 -0 -0 -0 -0 -0 -0 -0 -0 -0 -0 -0 -0 -0 -0 -0 -0 -0 -0 -0 -0 -0 -0 -0 -0 -0 -0 -0 -0 -0 -0 -0 -0
-0 -0 -0 -0 -0 -0 -0 -0 -0 -0 -0 -0 -0 -0 -0 -0 -0 -0 -0 -0 -0 -0 -0 -0 -0 -0 -0 -0 -0 -0 -0 -0 -0 -0 -0 -0 -0 -0 -0 -0 -0 -0 -0 -0
-0 -0 -0 -0 -0 -0 -0 -0 -0 -0 -0 -0 -0 -0 -0 -0 -0 -0 -0 -0 -0 -0 -0 -0 -0 -0 -0 -0 -0 -0 -0 -0 -0 -0 -0 -0 -0 -0 -0 -0 -0 -0 -0 -0
-0 -0 -0 -0 -0 -0 -0 -0 -0 -0 -0 -0 -0 -0 -0 -0 -0 -0 -0 -0 -0 -0 -0 -0 -0 -0 -0 -0 -0 -0 -0 -0 -0 -0 -0 -0 -0 -0 -0 -0 -0 -0 -0 -0
-0 -0 -0 -0 -0 -0 -0 -0 -0 -0 -0 -0 -0 -0 -0 -0 -0 -0 -0 -0 -0 -0 -0 -0 -0 -0 -0 -0 -0 -0 -0 -0 -0 -0 -0 -0 -0 -0 -0 -0 -0 -0 -0 -1
-0 -0 -0 -0 -0 -0 -0 -0 -0 -0 -0 -0 -0 -0 -0 -0 -0 -0 -0 -0 -0 -0 -0 -0 -0 -0 -0 -0 -0 -0 -0 -0 -0 -0 -0 -0 -0 -0 -0 -0 -0 -0 -0 -0
-0 -0 -0 -0 -0 -0 -0 -0 -0 -0 -0 -0 -0 -0 -0 -0 -0 -0 -0 -0 -0 -0 -0 -0 -0 -0 -0 -0 -0 -0 -0 -0 -0 -0 -0 -0 -0 -0 -0 -0 -0 -0 -0 -0
-0 -0 -0 -0 -0 -0 -0 -0 -0 -0 -0 -0 -0 -0 -0 -0 -0 -0 -0 -0 -0 -0 -0 -0 -0 -0 -0 -0 -0 -0 -0 -0 -0 -0 -0 -0 -0 -0 -0 -0 -0 -0 -0 -0
-0 -0 -0 -0 -0 -0 -0 -0 -0 -0 -0 -0 -0 -0 -0 -0 -0 -0 -0 -0 -0 -0 -0 -0 -0 -0 -0 -0 -0 -0 -0 -0 -0 -0 -0 -0 -0 -0 -0 -0 -0 -0 -0 -0
-0 -0 -0 -0 -0 -0 -0 -0 -0 -0 -0 -0 -0 -0 -0 -0 -0 -0 -0 -0 -0 -0 -0 -0 -0 -0 -0 -0 -0 -0 -0 -0 -0 -0 -0 -0 -0 -0 -0 -0 -0 -0 -0 -0
-0 -0 -0 -0 -0 -0 -0 -0 -0 -0 -0 -0 -0 -0 -0 -0 -0 -0 -0 -0 -0 -0 -0 -0 -0 -0 -0 -0 -0 -0 -0 -0 -0 -0 -0 -0 -0 -0 -0 -0 -0 -0 -0 -0
-0 -0 -0 -0 -0 -0 -0 -0 -0 -0 -0 -0 -0 -0 -0 -0 -0 -0 -0 -0 -0 -0 -0 -0 -0 -0 -0 -0 -0 -0 -0 -0 -0 -0 -0 -0 -0 -0 -0 -0 -0 -0 -0 -0
-0 -0 -0 -0 -0 -0 -0 -0 -0 -0 -0 -0 -0 -0 -0 -0 -0 -0 -0 -0 -0 -0 -0 -0 -0 -0 -0 -0 -0 -0 -0 -0 -0 -0 -0 -0 -0 -0 -0 -0 -0 -0 -0 -0
-0 -0 -0 -0 -0 -0 -0 -0 -0 -0 -0 -0 -0 -0 -0 -0 -0 -0 -0 -0 -0 -0 -0 -0 -0 -0 -0 -0 -0 -0 -0 -0 -0 -0 -0 -0 -0 -0 -0 -0 -0 -0 -0 -0
Wind_Speed
20 25 26 25 26 30 26 26 26 21 20 24 27 32 28 22 16 16 16 19 21 17 10 9 9 10 13 15 18 21 23 24 28 32 37 39 40 40 40 39 39 38 36 35
22 30 28 23 23 27 29 29 29 24 22 25 30 36 32 25 21 20 20 21 17 12 8 6 7 10 13 17 19 21 22 24 28 31 34 36 39 40 41 40 39 37 36 35
23 25 22 24 24 25 27 28 27 27 25 26 32 33 22 20 19 20 24 19 11 8 6 4 5 10 14 18 20 19 20 24 29 32 35 37 38 39 39 38 38 37 37 35
25 23 24 24 26 24 30 23 24 26 27 30 24 34 25 19 19 18 18 12 7 5 4 3 6 11 15 18 17 18 21 27 30 33 36 39 40 41 39 39 38 37 36 36
23 21 22 26 26 21 26 20 22 24 27 30 24 26 25 20 20 17 14 9 6 4 5 5 8 13 16 17 18 20 23 24 28 33 35 37 38 37 38 38 39 37 35 34
25 21 22 23 22 23 17 21 23 24 26 31 23 23 28 20 19 14 10 7 6 5 6 8 11 14 16 17 19 23 24 26 30 32 33 35 37 38 38 38 39 37 35 34
26 25 21 19 22 21 23 23 27 28 25 30 21 22 23 19 17 13 10 8 7 8 9 10 13 14 17 19 22 24 25 29 30 31 33 34 35 36 37 38 38 37 36 36
30 34 24 21 28 25 20 26 26 29 27 27 20 22 20 16 15 12 13 13 12 11 11 13 15 15 18 21 23 24 27 29 30 32 33 34 35 36 36 37 36 34 35 36
29 31 25 24 24 25 26 29 24 28 27 30 24 25 28 16 14 13 14 12 15 15 13 14 16 16 18 21 22 24 26 28 30 32 34 35 36 37 38 37 32 31 32 33
28 33 27 27 28 27 28 22 26 25 29 30 24 25 22 15 12 11 12 14 17 17 15 16 17 18 19 20 21 23 26 28 30 32 33 35 36 37 37 35 32 32 31 31
25 28 26 23 29 30 30 32 27 25 26 28 27 22 17 12 10 11 11 14 18 19 19 17 18 19 20 19 20 23 25 28 30 31 33 34 36 38 37 35 32 26 28 31
26 28 34 30 25 25 28 30 26 28 27 26 26 24 17 15 14 12 14 17 21 22 24 20 18 20 19 18 20 23 25 27 28 30 31 33 35 38 37 34 30 27 29 29
21 29 33 31 29 27 29 27 28 28 27 27 26 24 18 16 17 19 18 20 23 25 24 20 18 19 18 17 18 21 24 26 27 28 30 33 35 36 36 35 32 32 28 28
19 28 32 37 26 23 31 31 28 29 31 29 27 30 24 21 19 20 22 26 27 25 22 18 18 17 15 14 17 20 22 24 25 26 29 30 33 34 34 32 32 31 29 30
27 33 33 39 34 31 31 30 29 33 33 32 29 28 24 30 30 26 31 27 23 21 20 17 16 12 11 14 15 17 19 21 22 25 26 28 29 30 31 28 29 31 30 32
28 33 30 35 33 35 41 40 34 32 36 46 47 52 34 34 29 26 26 24 22 19 18 17 13 10 8 11 13 14 16 18 20 22 23 25 29 32 34 30 33 33 32 29
26 29 29 34 29 33 46 48 39 35 34 32 33 48 31 29 25 27 32 19 17 20 18 15 10 7 6 7 10 13 14 15 17 18 19 24 27 31 33 32 33 35 37 34
27 27 26 30 24 35 31 27 33 32 40 31 51 48 36 32 28 31 22 23 22 20 17 13 10 7 4 7 8 11 11 12 14 14 17 21 21 23 24 28 34 34 32 35
29 27 29 31 31 35 34 28 28 31 41 37 40 47 34 28 27 28 17 12 15 18 19 14 9 7 6 6 7 8 9 10 11 10 13 16 17 19 20 25 31 31 32 36
30 32 33 31 34 33 25 23 21 22 39 26 24 28 20 13 15 14 13 14 16 17 17 13 10 8 5 5 6 7 7 8 8 7 9 10 14 15 15 15 20 23 29 30
35 34 38 37 37 36 30 22 16 26 25 20 18 15 9 10 15 13 14 17 19 19 16 15 10 5 4 5 5 4 5 5 6 7 7 7 11 11 11 10 13 16 21 25
37 36 37 33 39 44 20 19 26 22 22 16 11 9 6 14 17 20 22 22 21 22 18 14 11 6 7 4 2 2 3 6 8 9 8 7 9 11 12 14 14 17 19 20
39 35 37 33 35 25 19 22 19 18 15 14 16 16 18 23 26 27 26 25 26 23 19 16 10 9 8 3 1 3 6 7 9 9 9 10 10 11 13 16 17 19 20 22
38 32 34 31 35 35 27 27 21 18 19 20 21 22 23 27 28 30 30 28 27 25 20 18 15 11 9 5 4 7 2 4 7 9 9 10 9 10 12 14 17 18 19 20
34 29 38 40 38 30 31 30 26 25 26 27 26 26 27 28 30 31 30 28 25 26 24 20 20 15 11 9 6 6 4 2 4 4 4 6 7 7 9 12 15 16 17 17
39 36 36 41 32 30 25 26 24 22 21 24 24 27 28 30 33 33 32 29 30 30 29 28 24 24 18 11 9 8 7 6 4 2 1 1 2 4 5 8 11 15 15 16
Wind_Direction
264 260 260 262 262 267 277 278 281 289 296 295 293 293 299 303 298 291 285 286 292 297 307 319 334 343 344 345 343 342 341 342 337 331 324 321 320 320 320 318 316 314 313 312
267 262 265 271 270 271 274 277 281 290 296 297 297 293 298 298 294 289 285 284 287 290 294 309 335 343 342 342 342 343 347 345 339 334 330 327 324 322 319 318 317 315 313 311
267 272 273 270 270 271 274 277 283 288 297 299 300 300 306 308 305 300 288 287 279 269 275 298 331 338 341 342 345 352 351 346 340 335 331 328 326 325 323 321 318 316 313 311
272 272 271 272 270 272 272 284 286 291 295 294 308 296 303 307 304 300 297 295 281 263 278 307 330 334 340 345 353 354 350 343 339 335 332 328 326 325 324 322 320 317 314 311
274 276 271 269 272 274 278 288 289 292 294 297 301 301 304 307 301 297 294 295 290 276 292 312 326 333 341 349 352 351 348 347 343 339 335 332 329 328 327 324 321 319 316 314
275 282 277 277 279 276 282 285 290 293 294 291 299 299 302 303 302 301 298 296 295 291 299 315 325 334 341 349 350 349 348 346 344 341 339 336 333 331 329 326 322 319 318 316
273 274 280 278 275 276 275 278 282 285 288 290 303 299 299 307 307 306 307 306 302 300 302 310 318 329 340 345 345 347 347 345 344 342 340 338 335 333 330 327 324 321 319 317
267 269 267 270 269 275 269 271 275 282 288 294 303 297 306 312 302 307 312 316 315 311 309 310 317 326 336 341 343 344 345 344 344 343 341 340 337 335 333 329 328 323 320 319
273 272 275 275 271 271 269 267 280 282 289 291 295 298 296 302 300 296 306 318 319 316 317 317 319 325 334 340 343 345 346 346 345 344 342 341 339 337 334 332 332 329 326 323
277 274 278 272 267 270 267 274 272 275 279 284 295 297 295 302 288 292 298 311 320 321 324 323 322 326 333 339 344 347 347 347 347 346 345 343 342 340 338 337 336 333 330 328
269 270 278 274 264 261 262 263 269 277 277 282 291 300 305 298 302 306 303 311 316 323 326 325 325 330 335 342 348 349 350 350 350 350 350 348 347 345 343 342 342 342 338 332
268 273 268 270 275 272 264 264 260 267 273 279 287 288 305 307 306 312 310 309 311 319 323 326 327 330 337 345 350 352 353 353 353 354 354 354 353 351 351 351 350 350 345 341
270 269 266 271 272 270 265 262 264 267 275 274 280 291 303 302 298 301 310 313 311 314 321 328 331 333 337 349 354 356 356 356 356 358 358 358 357 357 359 358 355 351 353 351
273 269 264 261 275 277 265 261 258 260 266 272 271 280 285 295 296 302 311 310 309 312 320 330 332 336 344 355 359 359 360 0 1 2 3 5 3 5 5 6 4 0 0 358
268 270 267 264 269 271 270 269 260 255 261 268 280 277 283 285 291 302 303 308 309 315 325 333 337 344 353 356 4 6 6 5 8 7 9 10 11 13 14 17 16 12 10 6
265 270 272 270 270 268 266 265 265 264 264 263 265 252 282 284 295 301 305 308 310 318 327 334 339 346 357 3 8 13 11 11 14 13 17 16 15 15 16 23 22 20 17 20
265 264 267 268 276 270 264 258 260 264 265 267 268 248 286 288 297 299 296 308 314 318 326 335 341 351 10 18 23 18 19 20 19 22 24 21 20 17 18 25 27 26 18 24
263 260 264 270 276 267 275 282 267 262 266 264 261 264 281 288 296 292 297 299 306 317 328 338 346 1 40 30 35 31 31 31 27 31 31 27 31 32 35 34 30 34 38 34
257 261 265 263 267 275 276 283 273 266 265 266 266 249 275 283 290 284 299 312 318 322 327 339 351 7 27 38 47 42 43 40 40 44 41 38 41 42 44 41 35 40 43 38
252 257 258 259 263 266 282 293 284 277 264 274 274 272 275 285 294 303 316 323 326 329 332 340 349 2 19 34 52 53 50 54 55 64 59 59 53 55 56 57 56 56 53 54
245 249 249 253 260 266 275 291 301 264 272 289 284 278 271 278 295 312 321 321 324 330 334 334 341 352 7 23 53 64 63 87 109 84 87 90 73 76 81 86 80 74 66 63
244 242 247 254 256 258 286 283 269 278 283 284 295 302 298 290 298 303 308 315 321 320 331 328 326 327 338 358 44 111 110 147 131 143 146 135 113 103 96 88 86 81 76 74
244 247 246 249 258 275 278 280 279 282 283 285 290 294 289 286 289 295 306 313 314 318 321 320 317 315 320 306 223 172 167 142 143 140 145 151 142 118 93 78 73 71 70 70
248 248 250 253 256 262 274 266 272 270 275 289 290 288 288 283 290 295 301 310 314 317 323 317 315 307 302 285 227 199 156 126 140 147 142 141 131 105 81 69 63 65 66 65
250 244 247 253 257 272 263 258 267 271 277 278 283 285 284 288 291 298 303 305 316 313 320 321 314 309 295 295 260 231 215 185 159 146 117 117 110 92 68 55 50 51 53 59
245 246 246 250 261 259 266 270 268 272 279 288 289 292 290 289 291 292 297 303 305 309 313 310 310 307 305 291 277 263 242 224 225 246 227 132 76 61 54 42 34 28 32 35